Location: Berg
(48.4333°N, 13.9167°E)
Time: 06:24:05
(UTC+00:00)

NOSS 2-2 (D) - Pass Details

Date: 18 September 2020
Orbit: 462 x 1746 km, 63.3° (Epoch: 14 October)

Event Time Altitude Azimuth Distance (km) Brightness Sun altitude
Rises 19:21:18 0° 236° (SW) 2,482 7.0 -21.6°
Reaches altitude 10° 19:23:21 10° 243° (WSW) 1,624 6.1 -21.9°
Maximum altitude 19:26:45 47° 319° (NW) 673 4.1 -22.4°
Drops below altitude 10° 19:30:41 10° 34° (NE) 1,888 6.0 -23.0°
Enters shadow 19:32:06 - 38° (NE) 2,470 6.6 -23.2°
